GW5292 Weather Reports


time (UTC)temp
F
wind
direction
speed
knots
gust
knots
rain 1hr
in
rain 24hr
in
rain mn
in
humidity
%
barometer
mb
20260504004510 54 209 0.0 1.7 0.00 0.00 0.00 44 1012.7
20260504003012 55 209 0.0 1.7 0.00 0.00 0.00 43 1012.5
20260504001519 56 213 0.9 1.7 0.00 0.00 0.00 41 1012.3
20260504000022 56 204 0.9 3.5 0.00 0.00 0.00 40 1012.2
20260503234537 57 192 0.9 5.2 0.00 0.00 0.00 40 1012.0
20260503233007 58 198 1.7 6.1 0.00 0.00 0.00 38 1012.0
20260503231512 58 210 0.9 4.3 0.00 0.00 0.00 38 1011.9
20260503230022 59 220 0.9 4.3 0.00 0.00 0.00 36 1011.8
20260503224503 59 184 2.6 5.2 0.00 0.00 0.00 36 1011.7
20260503223008 59 200 2.6 5.2 0.00 0.00 0.00 37 1011.6
20260503221511 58 180 1.7 5.2 0.00 0.00 0.00 36 1011.7
20260503220010 59 173 0.9 8.7 0.00 0.00 0.00 36 1011.8
20260503214502 59 179 1.7 5.2 0.00 0.00 0.00 36 1011.7
20260503213008 59 167 0.9 5.2 0.00 0.00 0.00 37 1011.6
20260503211507 60 130 0.9 6.1 0.00 0.00 0.00 35 1011.7
20260503210011 61 267 1.7 7.8 0.00 0.00 0.00 32 1011.7
20260503204504 60 207 2.6 5.2 0.00 0.00 0.00 33 1011.6
20260503203003 60 192 3.5 9.6 0.00 0.00 0.00 35 1012.0
20260503201503 60 234 1.7 6.1 0.00 0.00 0.00 36 1011.9
20260503200012 60 202 2.6 4.3 0.00 0.00 0.00 36 1012.0
20260503194513 59 198 0.0 6.1 0.00 0.00 0.00 37 1012.2
20260503193003 58 149 1.7 8.7 0.00 0.00 0.00 36 1012.5
20260503191505 58 227 2.6 9.6 0.00 0.00 0.00 38 1012.7
20260503190008 58 55 1.7 6.1 0.00 0.00 0.00 38 1012.9
20260503184512 58 69 1.7 8.7 0.00 0.00 0.00 38 1013.1
20260503183026 57 126 1.7 4.3 0.00 0.00 0.00 39 1013.2
20260503181503 56 115 3.5 9.6 0.00 0.00 0.00 39 1013.3
20260503180015 58 69 0.9 4.3 0.00 0.00 0.00 42 1013.3
20260503174513 58 137 0.9 4.3 0.00 0.00 0.00 35 1013.3
20260503173018 57 126 0.9 4.3 0.00 0.00 0.00 39 1013.6
20260503171520 57 158 1.7 5.2 0.00 0.00 0.00 41 1013.8
20260503081511 45 140 0.0 0.0 0.00 0.00 0.00 62 1012.2
20260503071514 45 9 1.7 3.5 0.00 0.00 0.00 62 1011.7
20260503054513 47 241 0.0 1.7 0.00 0.04 0.00 62 1011.9
20260503053002 47 250 0.0 2.6 0.00 0.05 0.00 61 1011.9
20260503051503 47 200 0.0 1.7 0.00 0.05 0.00 62 1012.1
20260503050010 48 243 0.0 1.7 0.00 0.05 0.00 62 1012.2
20260503044503 48 257 0.0 1.7 0.00 0.05 0.00 61 1012.4
20260503043016 48 265 0.0 1.7 0.00 0.05 0.00 61 1012.5
20260503041507 48 262 0.0 2.6 0.00 0.05 0.00 63 1012.6
20260503040005 48 209 0.0 2.6 0.00 0.05 0.00 62 1012.6
20260503034504 48 229 0.0 1.7 0.00 0.05 0.05 62 1012.7
20260503033008 48 183 0.0 1.7 0.00 0.05 0.05 62 1012.7
20260503031508 49 177 0.0 1.7 0.00 0.05 0.05 60 1012.7
20260503030003 49 296 0.0 1.7 0.00 0.05 0.05 58 1012.7
20260503024507 49 183 0.0 1.7 0.00 0.05 0.05 58 1012.8
20260503023004 49 104 0.0 1.7 0.00 0.05 0.05 57 1012.9
20260503021509 50 94 0.0 1.7 0.00 0.05 0.05 55 1012.9
20260503020012 50 271 0.0 1.7 0.00 0.05 0.05 53 1012.9
20260503014503 50 9 0.0 1.7 0.00 0.05 0.05 53 1012.9
20260503013009 51 224 0.0 1.7 0.00 0.05 0.05 52 1012.7
20260503011504 51 224 0.0 1.7 0.00 0.05 0.05 51 1012.6
20260503010008 51 231 0.0 0.0 0.00 0.05 0.05 50 1012.3